Location: Unspecified
(54.1780°N, 0.0000°E)
Time: 21:04:28
(UTC+00:00)

Vanguard 2 - Pass Details

Date: 24 June 2019
Orbit: 553 x 2938 km, 32.9° (Epoch: 22 July)

Event Time Altitude Azimuth Distance (km) Brightness Sun altitude
Rises 12:42:27 0° 245° (WSW) 4,278 11.6 58.3°
Reaches altitude 10° 12:48:45 10° 210° (SSW) 3,952 11.9 58.0°
Maximum altitude 12:50:46 11° 199° (SSW) 4,090 12.0 57.9°
Drops below altitude 10° 12:52:57 10° 188° (S) 4,348 12.1 57.8°
Sets 13:01:58 0° 158° (SSE) 6,067 12.4 57.3°
